Weather History for Volk, WI

Change the Weather History Date:

Tuesday, July 9, 2013

  Actual Average Record
Temperature  
Mean Temperature 76 °F -  
Max Temperature 85 °F 78 °F 93 °F (2001)
Min Temperature 66 °F 62 °F 50 °F (2008)
Cooling Degree Days 11    
Growing Degree Days 26 (Base 50)    
Moisture  
Dew Point 69 °F    
Average Humidity 94    
Maximum Humidity 100    
Minimum Humidity 62    
Precipitation  
Precipitation 0.13 in - - ()
Sea Level Pressure  
Sea Level Pressure 29.93 in    
Wind  
Wind Speed 5 mph (SE)    
Max Wind Speed 21 mph    
Max Gust Speed 29 mph    
Visibility 6 miles    
Events Fog , Rain , Thunderstorm    
Averages and records for this station are not official NWS values.
T = Trace of Precipitation, MM = Missing Value Source: NWS Daily Summary

Daily Weather History Graph

Daily Weather History Graph

Search for Another Location

Airport:

Trip Planner

Search our weather history database for the weather conditions in past years. The results will help you decide how hot, cold, wet, or windy it might be!

Date:

Astronomy

Jul. 09, 2013 Rise Set
Actual Time 5:27 AM CDT 8:44 PM CDT
Civil Twilight 4:52 AM CDT 9:19 PM CDT
Nautical Twilight 4:06 AM CDT 10:05 PM CDT
Astronomical Twilight 3:09 AM CDT 11:02 PM CDT
Moon 6:56 AM CDT (7/9) 9:16 PM CDT (7/9)
Length of Visible Light 16h 27m
Length of Day
15h 16m
New Moon, 2% of the Moon is Illuminated
Jul 9
New Moon
Jul 15
First Quarter
Jul 22
Full
Jul 29
Last Quarter
Aug 6
New

Hourly Weather History & Observations

Time (CDT) Temp. Heat Index Dew Point Humidity Pressure Visibility Wind Dir Wind Speed Gust Speed Precip Events Conditions
12:41 AM 71.6 °F - 69.8 °F 94% 30.00 in 10.0 mi SE 3.5 mph - N/A Rain Light Rain
12:47 AM 69.8 °F - 69.8 °F 100% 30.00 in 10.0 mi SSE 3.5 mph - N/A   Clear
12:58 AM 69.8 °F - 69.4 °F 99% 29.99 in 10.0 mi SSE 4.6 mph - 0.00 in   Clear
1:48 AM 68.0 °F - 68.0 °F 100% 29.98 in 1.2 mi ESE 3.5 mph - N/A   Clear
1:53 AM 68.0 °F - 68.0 °F 100% 29.98 in 0.8 mi East 4.6 mph - N/A   Clear
1:58 AM 68.2 °F - 68.2 °F 100% 29.98 in 0.5 mi ESE 3.5 mph - N/A Fog Fog
2:03 AM 68.0 °F - 68.0 °F 100% 29.98 in 0.8 mi SE 3.5 mph - N/A   Clear
2:08 AM 68.0 °F - 68.0 °F 100% 29.98 in 2.0 mi SSE 4.6 mph - N/A   Clear
2:13 AM 69.8 °F - 69.8 °F 100% 29.98 in 10.0 mi SSE 4.6 mph - N/A   Clear
2:28 AM 68.0 °F - 68.0 °F 100% 29.99 in 6.0 mi ESE 3.5 mph - N/A   Clear
2:33 AM 68.0 °F - 68.0 °F 100% 29.99 in 1.2 mi ESE 3.5 mph - N/A   Clear
2:38 AM 68.0 °F - 68.0 °F 100% 29.99 in 0.8 mi ESE 3.5 mph - N/A   Clear
2:48 AM 68.0 °F - 68.0 °F 100% 29.98 in 1.2 mi SE 2.3 mph - N/A   Clear
2:53 AM 68.0 °F - 68.0 °F 100% 29.98 in 9.0 mi ESE 3.5 mph - N/A   Clear
2:58 AM 67.5 °F - 67.5 °F 100% 29.98 in 8.0 mi ESE 4.6 mph - N/A   Clear
3:03 AM 66.2 °F - 66.2 °F 100% 29.98 in 1.2 mi ESE 4.6 mph - N/A   Clear
3:08 AM 66.2 °F - 66.2 °F 100% 29.98 in 0.5 mi ESE 3.5 mph - N/A Fog Fog
3:13 AM 66.2 °F - 66.2 °F 100% 29.98 in 0.8 mi ESE 3.5 mph - N/A   Clear
3:18 AM 66.2 °F - 66.2 °F 100% 29.98 in 7.0 mi SE 3.5 mph - N/A   Clear
3:23 AM 68.0 °F - 68.0 °F 100% 29.98 in 4.0 mi SE 4.6 mph - N/A   Clear
3:33 AM 66.2 °F - 66.2 °F 100% 29.97 in 7.0 mi ESE 3.5 mph - N/A   Clear
3:38 AM 66.2 °F - 66.2 °F 100% 29.97 in 2.0 mi East 1.2 mph - N/A   Clear
3:43 AM 66.2 °F - 66.2 °F 100% 29.97 in 0.8 mi SSE 2.3 mph - N/A   Clear
3:48 AM 66.2 °F - 66.2 °F 100% 29.97 in 1.0 mi SE 2.3 mph - N/A   Clear
3:58 AM 66.2 °F - 66.2 °F 100% 29.96 in 0.5 mi East 3.5 mph - N/A Fog Fog
4:08 AM 66.2 °F - 66.2 °F 100% 29.97 in 0.2 mi East 4.6 mph - N/A Fog Fog
4:33 AM 66.2 °F - 66.2 °F 100% 29.96 in 0.8 mi ESE 4.6 mph - N/A   Clear
4:38 AM 66.2 °F - 66.2 °F 100% 29.96 in 5.0 mi ESE 4.6 mph - N/A   Clear
4:48 AM 66.2 °F - 66.2 °F 100% 29.96 in 10.0 mi ESE 4.6 mph - N/A   Clear
4:53 AM 66.2 °F - 66.2 °F 100% 29.95 in 4.0 mi East 5.8 mph - N/A   Clear
4:58 AM 66.2 °F - 66.2 °F 100% 29.94 in 1.2 mi East 5.8 mph - N/A   Clear
5:03 AM 66.2 °F - 66.2 °F 100% 29.95 in 0.8 mi East 6.9 mph - N/A   Clear
5:08 AM 66.2 °F - 66.2 °F 100% 29.95 in 0.2 mi ESE 5.8 mph - N/A Fog Fog
5:13 AM 66.2 °F - 66.2 °F 100% 29.95 in 0.2 mi ESE 5.8 mph - N/A Fog Fog
5:18 AM 66.2 °F - 66.2 °F 100% 29.95 in 1.2 mi ESE 4.6 mph - N/A   Clear
5:23 AM 66.2 °F - 66.2 °F 100% 29.95 in 4.0 mi ESE 4.6 mph - N/A   Clear
5:32 AM 66.2 °F - 66.2 °F 100% 29.95 in 5.0 mi ESE 5.8 mph - N/A   Partly Cloudy
5:42 AM 68.0 °F - 68.0 °F 100% 29.95 in 1.0 mi ESE 4.6 mph - N/A   Clear
5:47 AM 68.0 °F - 68.0 °F 100% 29.96 in 0.8 mi ESE 4.6 mph - N/A   Clear
5:52 AM 68.0 °F - 68.0 °F 100% 29.96 in 1.0 mi SE 4.6 mph - N/A   Clear
5:57 AM 68.0 °F - 68.0 °F 100% 29.96 in 4.0 mi ESE 4.6 mph - N/A   Clear
5:58 AM 68.0 °F - 68.0 °F 100% 29.96 in 4.0 mi ESE 4.6 mph - N/A   Clear
6:03 AM 68.0 °F - 68.0 °F 100% 29.95 in 2.5 mi ESE 4.6 mph - N/A   Clear
6:07 AM 68.0 °F - 68.0 °F 100% 29.96 in 1.5 mi ESE 4.6 mph - N/A   Partly Cloudy
6:12 AM 68.0 °F - 68.0 °F 100% 29.96 in 1.5 mi ESE 3.5 mph - N/A   Scattered Clouds
6:17 AM 68.0 °F - 68.0 °F 100% 29.96 in 2.5 mi SE 2.3 mph - N/A   Mostly Cloudy
6:22 AM 68.0 °F - 68.0 °F 100% 29.96 in 4.0 mi SE 4.6 mph - N/A   Mostly Cloudy
6:27 AM 68.0 °F - 68.0 °F 100% 29.95 in 5.0 mi ESE 4.6 mph - N/A   Mostly Cloudy
6:57 AM 71.6 °F - 71.6 °F 100% 29.95 in 4.0 mi ESE 2.3 mph - N/A   Scattered Clouds
6:58 AM 71.6 °F - 71.6 °F 100% 29.94 in 4.0 mi ESE 2.3 mph - N/A   Scattered Clouds
7:58 AM 73.4 °F - 73.4 °F 100% 29.93 in 7.0 mi SE 8.1 mph - N/A   Mostly Cloudy
8:58 AM 78.8 °F - 73.4 °F 83% 29.91 in 10.0 mi SSE 6.9 mph - N/A   Mostly Cloudy
9:38 AM 77.0 °F - 73.4 °F 89% 29.92 in 10.0 mi SSW 10.4 mph - N/A Thunderstorm Overcast
9:49 AM 77.0 °F - 73.4 °F 89% 29.92 in 10.0 mi SSW 12.7 mph 18.4 mph N/A Rain , Thunderstorm Light Thunderstorms and Rain
9:58 AM 77.0 °F - 73.4 °F 89% 29.92 in 10.0 mi SW 13.8 mph 23.0 mph N/A Rain , Thunderstorm Light Thunderstorms and Rain
10:19 AM 73.4 °F - 71.6 °F 94% 29.92 in 7.0 mi SW 10.4 mph 18.4 mph N/A Rain , Thunderstorm Light Rain
10:58 AM 71.6 °F - 69.8 °F 94% 29.90 in 10.0 mi South 8.1 mph - N/A Rain Light Rain Showers
11:09 AM 71.6 °F - 69.8 °F 94% 29.90 in 10.0 mi South 10.4 mph - N/A   Overcast
11:58 AM 73.4 °F - 69.8 °F 88% 29.90 in 10.0 mi WSW 6.9 mph - N/A   Overcast
12:20 PM 73.4 °F - 69.8 °F 88% 29.92 in 10.0 mi West 6.9 mph - N/A Rain Light Rain Showers
12:53 PM 73.4 °F - 71.6 °F 94% 29.86 in 10.0 mi SSE 10.4 mph - N/A   Mostly Cloudy
12:58 PM 73.4 °F - 71.6 °F 94% 29.85 in 10.0 mi South 11.5 mph - N/A   Mostly Cloudy
1:58 PM 78.8 °F - 71.6 °F 78% 29.85 in 10.0 mi South 2.3 mph - N/A   Mostly Cloudy
2:58 PM 84.2 °F 89.6 °F 71.6 °F 66% 29.83 in 10.0 mi SW 6.9 mph - N/A   Scattered Clouds
3:58 PM 86.0 °F 93.4 °F 73.4 °F 66% 29.83 in 10.0 mi WSW 17.3 mph 25.3 mph N/A   Scattered Clouds
4:58 PM 86.0 °F 91.8 °F 71.6 °F 62% 29.81 in 10.0 mi SW 15.0 mph 25.3 mph N/A   Mostly Cloudy
5:08 PM 84.2 °F 90.9 °F 73.4 °F 70% 29.81 in 10.0 mi SW 13.8 mph 23.0 mph N/A Thunderstorm Mostly Cloudy
5:18 PM 86.0 °F 93.4 °F 73.4 °F 66% 29.81 in 10.0 mi SW 20.7 mph 28.8 mph N/A Rain Light Rain Showers
5:30 PM 84.2 °F 90.9 °F 73.4 °F 70% 29.81 in 10.0 mi SW 12.7 mph 24.2 mph N/A   Mostly Cloudy
5:58 PM 84.2 °F 90.9 °F 73.4 °F 70% 29.81 in 10.0 mi WSW 12.7 mph - N/A   Partly Cloudy
6:58 PM 84.2 °F 90.9 °F 73.4 °F 70% 29.80 in 10.0 mi WSW 13.8 mph - N/A   Partly Cloudy
7:58 PM 81.0 °F 85.1 °F 71.6 °F 73% 29.83 in 10.0 mi WNW 12.7 mph - N/A   Partly Cloudy
8:58 PM 75.2 °F - 68.0 °F 78% 29.83 in 10.0 mi West 8.1 mph - N/A   Clear
9:58 PM 73.4 °F - 68.0 °F 83% 29.85 in 10.0 mi West 8.1 mph - N/A   Clear
10:58 PM 73.2 °F - 68.0 °F 84% 29.85 in 10.0 mi West 9.2 mph - N/A   Clear
11:58 PM 73.6 °F - 68.4 °F 84% 29.85 in 10.0 mi West 9.2 mph - N/A   Clear